Weather Roundup
Issued by NWS

Home | Current Version | Previous Version | Graphics & Text | Print | Product List | Glossary Off
Versions: 1 2 3 4 5 6 7 8 9 10 11 12 13 14 15 16 17 18 19 20 21 22 23 24 25 26 27 28 29 30 31 32 33 34 35 36 37 38 39 40 41 42 43 44 45 46 47 48 49 50

000
NZUS93 KARX 280610
HRRWXR

CURRENT HOURLY OBSERVATIONS ACROSS
MUCH OF THE UPPER MISSISSIPPI VALLEY
NATIONAL WEATHER SERVICE LA CROSSE WI
100 AM CDT THU JUL 28 2016


...SOUTHEAST MINNESOTA...


CITY           SKY/WX    TMP DP  RH WIND       PRES   REMARKS
ROCHESTER      MOCLDY    66  66 100 NW6       29.97S
ROCHESTER/MAYO CLOUDY    67  67 100 NW7       29.96S
WINONA         CLOUDY    70  66  88 CALM      29.93F
AUSTIN         PTCLDY    66  64  94 NW7       29.98R
ALBERT LEA     CLEAR     66  66 100 N5        29.98S
DODGE CENTER   CLOUDY    64  64 100 NW5       29.97F
PRESTON        CLOUDY    67  65  91 NW6       29.96S
OWATONNA       PTCLDY    66  63  88 N6        29.98S
FARIBAULT      CLOUDY    66  64  94 N5        29.98F
$$

...ELSEWHERE IN MINNESOTA...


CITY           SKY/WX    TMP DP  RH WIND       PRES   REMARKS
MINNEAPOLIS    CLOUDY    68  64  87 N9        29.99R
INTNL FALLS    MOCLDY    62  54  74 N3        30.11R
DULUTH         MOCLDY    57  54  89 N6        30.06F
RED WING       CLOUDY    70  66  88 N3        29.95S
REDWOOD FALLS  CLOUDY    67  63  87 N5        30.01S
MANKATO        CLEAR     64  59  82 N9        29.99S
WORTHINGTON    PTCLDY    66  61  84 N9        30.04S
FAIRMONT       CLEAR     66  64  94 N6        29.99F
$$

...SOUTHWEST WISCONSIN...


CITY           SKY/WX    TMP DP  RH WIND       PRES   REMARKS
LA CROSSE      CLOUDY    72  67  84 E6        29.91F
PRAIRIE DU CHI CLEAR     68  66  91 E3        29.92S
BOSCOBEL       MOCLDY    67  66  97 CALM      29.93S FOG
LONE ROCK      CLEAR     67  65  93 CALM      29.93F
PLATTEVILLE    CLEAR     71  67  89 E3        29.94F
FORT MC COY    CLOUDY    66  65  97 CALM      29.94F
CAMP DOUGLAS   CLOUDY    69  67  96 NE6       29.93F
MAUSTON-NEW LI LGT RAIN  70  70  98 CALM      29.93F
VIROQUA        FAIR      71  67  88 S3        29.94F
WIS DELLS      MOCLDY    70  67  92 NE7       29.94F
$$

...ELSEWHERE IN WISCONSIN...


CITY           SKY/WX    TMP DP  RH WIND       PRES   REMARKS
MILWAUKEE      PTCLDY    71  68  90 N5        29.95S
MADISON        CLOUDY    73  68  84 SE3       29.93F
GREEN BAY      RAIN      67  67 100 NE12      30.00R FOG
EAU CLAIRE     CLOUDY    66  65  96 NE5       29.95F
BLACK RVR FLS  MOCLDY    65  65 100 N3        29.94F
MEDFORD        RAIN      62  62 100 E6        29.99F
WAUSAU         CLOUDY    64  63  96 E7        29.97F
WIS RAPIDS     CLOUDY    66  63  90 E9        29.97F
MARSHFIELD     CLOUDY    66  63  90 E9        29.96F
RICE LAKE      MOCLDY    65  64  96 N5        30.00F
$$

...NORTHEAST IOWA...


CITY           SKY/WX    TMP DP  RH WIND       PRES   REMARKS
WATERLOO       PTCLDY    70  67  90 W3        29.92F
DUBUQUE        CLEAR     70  66  87 CALM      29.94F
DECORAH        MOCLDY    68  68 100 CALM      29.93S
MASON CITY     CLEAR     67  65  93 NW9       29.99F
CHARLES CITY   CLEAR     66  66 100 NW5       29.96S FOG
OELWEIN        CLEAR     66  66 100 S3        29.94F
$$

...ELSEWHERE IN IOWA...


CITY           SKY/WX    TMP DP  RH WIND       PRES   REMARKS
DES MOINES     PTCLDY    76  69  79 CALM      29.94F
IOWA CITY      CLEAR     71  68  90 CALM      29.94F
FORT DODGE     CLEAR     68  64  88 N3        29.99F
MARSHALLTOWN   PTCLDY    67  67 100 W5        29.94F
CEDAR RAPIDS   CLEAR     68  68 100 NW5       29.93F
$$

...NORTHERN ILLINOIS...


CITY           SKY/WX    TMP DP  RH WIND       PRES   REMARKS
CHICAGO-OHARE  PTCLDY    74  66  76 CALM      29.93F
CHICAGO-MIDWAY PTCLDY    79  66  64 E3        29.93S
MOLINE         MOCLDY    74  68  81 CALM      29.91F
ROCKFORD       PTCLDY    71  67  87 CALM      29.95S
PEORIA         CLOUDY    75  71  87 CALM      29.93F
$$

NOTE: "FAIR" INDICATES FEW OR NO CLOUDS BELOW 12,000 FEET WITH NO
SIGNIFICANT WEATHER AND/OR OBSTRUCTIONS TO VISIBILITY. WIND
SPEEDS ARE IN MILES-PER-HOUR.




USA.gov is the U.S. government's official web portal to all federal, state and local government web resources and services.